Location: Gorzów Wielkopolski
(52.7325°N, 15.2369°E)
Time: 12:56:20
(UTC+01:00)

ISS - Visible Passes

Search period start: 24 March 2019 00:00
Search period end: 03 April 2019 01:00
Orbit: 408 x 411 km, 51.6° (Epoch: 24 March)

Date Brightness Start Highest point End Pass type
(mag) Time Alt. Az. Time Alt. Az. Time Alt. Az.
24 Mar -2.8 19:33:01 10° SW 19:35:56 29° SSE 19:37:09 22° ESE visible
24 Mar -1.4 21:08:57 10° WSW 21:09:56 18° WSW 21:09:56 18° WSW visible
25 Mar -3.8 20:18:21 10° WSW 20:21:38 58° SSE 20:21:38 58° SSE visible
26 Mar -3.4 19:27:49 10° SW 19:31:01 46° SSE 19:33:13 18° E visible
26 Mar -2.1 21:04:09 10° W 21:05:59 30° W 21:05:59 30° W visible
27 Mar -3.9 20:13:30 10° W 20:16:48 72° S 20:17:27 52° ESE visible
27 Mar -0.6 21:50:02 10° W 21:50:13 11° W 21:50:13 11° W visible
28 Mar -3.7 19:22:52 10° WSW 19:26:08 64° S 19:28:51 14° E visible
28 Mar -2.7 20:59:21 10° W 21:01:37 39° WSW 21:01:37 39° WSW visible
29 Mar -3.9 20:08:39 10° W 20:11:58 74° S 20:12:58 41° ESE visible
29 Mar -0.9 21:45:15 10° W 21:45:43 13° W 21:45:43 13° W visible
30 Mar -3.8 19:17:58 10° W 19:21:16 74° S 19:24:16 12° E visible
30 Mar -2.9 20:54:30 10° W 20:57:01 41° WSW 20:57:01 41° WSW visible
31 Mar -3.7 21:03:46 10° W 21:07:03 62° SSW 21:08:18 33° SE visible
31 Mar -0.9 22:40:34 10° W 22:41:03 13° W 22:41:03 13° W visible
01 Apr -3.7 20:13:03 10° W 20:16:20 71° S 20:19:35 10° ESE visible
01 Apr -2.5 21:49:41 10° W 21:52:20 31° SW 21:52:20 31° SW visible
02 Apr -3.1 20:58:52 10° W 21:02:02 43° SSW 21:03:36 24° SE visible
